Overview Statistics Trail Chart Weather Telemetry Raw packets
 

This is the latest recevied weather packets stored in our database for station/object K1BES. If no packets are shown the sender has not sent any weather packets the latest 10 day(s).

<< 27 28 29 30 31 32 33 >>
Time Temp. Humidity Pressure Rain* Wind** Luminosity Snow
1788461169 32.78° C 67% 1015.8 hPa 0 mm - 1046 W/m² -
1788460869 32.22° C 70% 1016 hPa 0 mm - 982 W/m² -
1788460568 31.67° C 71% 1015.9 hPa 0 mm - 1028 W/m² -
1788460263 31.67° C 71% 1015.9 hPa 0 mm - 1063 W/m² -
1788459961 31.67° C 72% 1015.8 hPa 0 mm - 852 W/m² -
1788459658 31.67° C 73% 1015.6 hPa 0 mm - 1032 W/m² -
1788459356 31.67° C 69% 1015.6 hPa 0 mm - 1028 W/m² -
1788459051 31.11° C 73% 1015.7 hPa 0 mm - 879 W/m² -
1788458747 31.67° C 72% 1015.9 hPa 0 mm - 774 W/m² -
1788458447 31.11° C 74% 1016 hPa 0 mm - 1078 W/m² -
1788458146 30.56° C 75% 1016.2 hPa 0 mm - 488 W/m² -
1788457857 31.67° C 72% 1016.4 hPa 0 mm - 231 W/m² -
1788457540 32.22° C 74% 1016.2 hPa 0 mm - 664 W/m² -
1788457235 31.67° C 75% 1016.4 hPa 0 mm - 1077 W/m² -
1788456930 32.22° C 73% 1016.2 hPa 0 mm - 662 W/m² -
1788456626 32.22° C 74% 1016.4 hPa 0 mm - 1113 W/m² -
1788456320 32.22° C 74% 1016.7 hPa 0 mm - 339 W/m² -
1788456016 32.22° C 72% 1016.7 hPa 0 mm - 337 W/m² -
1788455711 32.22° C 73% 1016.7 hPa 0 mm - 894 W/m² -
1788455406 33.33° C 72% 1016.6 hPa 0 mm - 328 W/m² -
1788455105 33.89° C 69% 1016.4 hPa 0 mm - 450 W/m² -
1788454800 33.89° C 70% 1016.4 hPa 0 mm - 1110 W/m² -
1788454498 33.89° C 66% 1016.6 hPa 0 mm - 573 W/m² -
1788454194 33.89° C 65% 1016.6 hPa 0 mm - 1073 W/m² -
1788453889 33.89° C 68% 1016.6 hPa 0 mm - 1075 W/m² -

* Rain latest hour (hover to see other rain measurements)
** Current wind speed in m/s (hover to see current wind gust speed)